Location: Unspecified
(0.0000°N, 0.0000°E)
Time: 09:32:01
(UTC+00:00)

deb DAPP - Pass Details

Date: 21 December 2025
Orbit: 606 x 945 km, 99.0° (Epoch: 14 January)

Event Time Altitude Azimuth Distance (km) Brightness Sun altitude
Rises 18:29:31 0° 148° (SSE) 3,310 ? -7.1°
Reaches altitude 10° 18:32:00 10° 138° (SE) 2,430 ? -7.7°
Maximum altitude 18:36:49 33° 76° (ENE) 1,431 ? -8.8°
Drops below altitude 10° 18:41:55 10° 14° (NNE) 2,588 ? -10.0°
Sets 18:44:38 0° 5° (N) 3,557 ? -10.6°
